Torna al catalogo

STARLINK-34389

AttivoComunicazioniVLEO
NORAD 64351·PAYLOAD·🇺🇸 United States

Lanciato Jun 13, 2025 da Vandenberg Space Force Base

Loading…

Prossimi Passaggi (prossime 24 ore)

TLE

AggiornatoSource: CelesTrak SupGP

Epoca: Sep 14, 2026, 21:39 UTC

1 64351C 25126H   26257.90256944  .00075782  00000+0  26366-2 0  2576
2 64351  69.9998 275.7921 0003316 266.9706 102.3206 15.29535822    10

Traccia STARLINK-34389 in tempo reale con AllMySat

Download on the App Store